Погода в Комрате

Погода в Комрате : погода сейчас, прогноз погоды и архив. Всё, что Вы хотите узнать о погоде в Комрате!

Поиск расширенной информации на нашем сайте:

Другие новости

Новости СМИ2

Главная страница сайта

Новости сайта

03.07.2017

Напоминаем, что на нашем специализированном сайте Метеоцентр.Азия вы можете получить высокодетализированные автоматические прогнозы погоды по пунктам России, СНГ и мира в авиационном формате (включающие направление и скорость ветра, видимость, явления погоды, количество и форму облачности, нижнюю и верхнюю границу облачности).

Рекомендуем: Важные правила бессолевой диеты для беременных.

Погода в Комрате - сегодня

Время (UTC), дата Ветер
(°,м/с) 
Видим.   Явления Облачность Т
(°С)
Тd
(°С)
f(%) Тe
(°С)
Pmin
(гПа)
dP
(гПа)
Po
(мм)
O2
(г/м3)
Тmin Tmax R s Состояние
почвы
06 20.07.17 020 (С) 20000 м    ясно 
+23.5 +12.2 49 +28  1015.8  0.3  750  276  +16.4         
09 20.07.17 160 (Ю) 20000 м    4/4 600 м 
[Cu Sc]
+29.5 +7.4 25 +30  1014.7  -0.8  749  271           
12 20.07.17 040 (СВ) 20000 м    4/4 600 м 
[Cu Sc]
+29.4 +8.5 27 +29  1013.5  -1.2  749  271           
15 20.07.17 100 (В) 20000 м    4/4 600 м 
[Cu Sc]
+30.7 +8.4 25 +31  1012.4  -1  748  269           
18 20.07.17 170 (Ю) 20000 м    ясно 
+24.8 +12.4 46 +29  1013.2  0.5  748  274    +31.4       
21 20.07.17 тихо ()   10 км    ясно 
+20.5 +12.2 59 +25  1014.2  0.8  749  278           
00 21.07.17 160 (Ю) 10 км    ясно 
+19.6 +13.3 67 +27  1014.1  -0.2  749  279           
03 21.07.17 330 (СЗ) 20000 м    ясно 
+17.3 +13 76 +24  1014.3  0.1  749  281           
06 21.07.17 110 (В) 20000 м    ясно 
+24.7 +14.5 53 +33  1014.9  749  274  +16.5         
09 21.07.17 160 (Ю) 20000 м    ясно 
+30.5 +9.4 27 +31  1014.9  0.3  750  270           
12 21.07.17 190 (Ю) 20000 м    1/1 1000 м 
[Cu hum]
+32.2 +8.5 23 +32  1014.1  -0.7  749  269           
15 21.07.17 180 (Ю) 20000 м    ясно 
+31.6 +8.6 24 +32  1013.3  -0.8  749  269           
18 21.07.17 180 (Ю) 20000 м    ясно 300 м 
+26 +10.2 37 +27  1013.7  0.1  749  274    +32.8       
21 21.07.17 140 (ЮВ) 10 км    ясно 
+21.9 +11.3 51 +25  1014.4  0.5  749  277           
00 22.07.17 150 (ЮВ) 10 км    ясно 
+18.4 +12.8 70 +25  1014.2  -0.4  749  280           
03 22.07.17 тихо ()   20000 м    ясно 
+17.7 +12.4 71 +22  1014.2  -0.1  749  281           
06 22.07.17 160 (Ю) 20000 м    ясно 270 м 
+25 +13.2 48 +31  1014.3  0.5  749  274  +17.6         
09 22.07.17 200 (Ю) 20000 м    ясно 
+31.1 +11.5 30 +34  1013.8  -0.2  749  269           
12 22.07.17 190 (Ю) 20000 м    ясно 
+32.8 +13 30 +38  1012.8  -0.9  748  267           
15 22.07.17 200 (Ю) 20000 м    6/6 600 м 
[Sc diur, vesp]
+31 +14.2 36 +38  1012.2  -0.6  748  268           
18 22.07.17 350 (С) 10 км  гроза без осадков  8/8 600 м кучево-дожд. 
[Cb cap]
+25.1 +13.6 49 +32  1013.2  0.7  748  273    +33.3       
21 22.07.17 280 (З) 10 км  {гроза}  3/0 верхняя 
[Ci sp]
+23.1 +13.6 55 +29  1014.4  749  276           
00 23.07.17 320 (СЗ) 10 км  {гроза}  ясно 
+21 +16.8 77 +33  1014.2  -0.3  749  276           
03 23.07.17 330 (СЗ) 20000 м    ясно 
+20.3 +16.5 79 +32  1014.3  0.1  749  277           
06 23.07.17 360 (С) 20000 м    1/0 верхняя 
[Ci sp]
+24.6 +17.1 63 +37  1014.8  0.7  749  273  +19.2         
Время (UTC), дата Ветер
(°,м/с) 
Видим.   Явления Облачность Т
(°С)
Тd
(°С)
f(%) Тe
(°С)
Pmin
(гПа)
dP
(гПа)
Po
(мм)
O2
(г/м3)
Тmin Tmax R s Состояние
почвы

Для получения пояснительной информации подведите курсор к названию столбца.

ПОГОДА в Комрате - архив

Всё, что Вы хотите узнать о погоде в Комрате - удобно и подробно!

Выберите нужную дату (начиная с 1 января 2015* года) и нажмите кнопку "Найти".
Будут отображены архивные сводки погоды по пункту Комрат, начиная с указанной даты.


Отображать данные в формате CSV (для использования в таблицах Excel)


Внимание! Наш архив погоды предназначен исключительно для личного некоммерческого использования в познавательных целях. Если Вам необходимы официальные справки о состоянии погоды (для производственных, юридических, коммерческих и т.п. целей), обращайтесь в органы Росгидромета.

*Примечание: данная дата относится к архиву по метеостанциям СССР (Россия, СНГ, Балтия).
Архив по метеостанциям Зарубежной Европы и Азии (кроме Китая) хранится 10 дней, по другим регионам земного шара (Китай, Африка, Америка, Австралия, Океания) - 1 день.

Комрат - район местоположения метеостанции


Название, широта, долгота, высота метеостанции:
Комрат 46.3°ш. 28.6°д. 133 м над ур. моря [Молдавия]

Дополнительная информация

В oтличие oт бoльшинства пoгoдных сайтoв мы публикуем пoдрoбную метеoинфoрмацию в детальнoм прoфессиoнальнoм фoрмате.

Характеристики температуры и влажнoсти вoздуха измеряются на высoте 2 м в тени вдали oт зданий и деревьев.
Скoрoсть ветра измеряется на высoте 10 м (на урoвне рoста челoвека скoрoсть ветра ниже в 1.5-2 раза). Если метеoстанция нахoдится в гoрoде или в лесу, тo скoрoсть ветра занижена на 2-4 м/с пo сравнению с oткрытым местoм. Скoрoсть ветра над акватoриями крупных рек и oзёр, а также на вершинах хoлмoв на 2-5 м/с выше, чем в oбычных услoвиях.
Атмoсфернoе давление в разных тoчках местнoсти мoжет значительнo oтличаться oт давления на метеoстанции, в зависимoсти oт услoвий рельефа (при пoдъёме на 10 м давление пoнижается примернo на 1 мм рт.ст.).